Flughafen Lübeck-Blankensee

Aus VATSIM Germany
Dies ist die bestätigte sowie die neueste Version dieser Seite.
Wechseln zu:Navigation, Suche
UnderCon icon.svg.pngDieser Artikel ist noch im Aufbau. Der Artikel kann daher unvollständig sein oder Fehler enthalten!


Lübeck Blankensee Airport
ICAO / IATA EDHL / LBC
Koordinaten N53°48′19″  E010°43′9″
Höhe 16 m / 53 ft
Wetter EDHL 221950Z 08004KT CAVOK 14/10 Q1014
Pisten
Platzfrequenzen
Nur für Flugsimulationszwecke!



Informationen für Piloten und Lotsen
Pilotenbriefing

Standard Operating Procedures (SOP)

Letters of Agreement (LoAs)

Airport Charts